STARLINK-1376 (45570 NORAD) Tracking and Keplerian Element Data

This shows tracking and keplerian element data for the satellite.

Feedback or suggestion? Click here.




ElementValue
Catalog45570
NameSTARLINK-1376
Epoch Orbit180
Epoch Day145.91667824
Epoch Year2020
RAAN240.9499
Inclination52.9979
Eccentricity0.000113
Argument of Perigee88.9598
Mean Anonmoly138.1738
Mean Motion15.62776513
Decay Rate-0.00028921
L11 45570U 20025AR 20145.91667824 -.00028921 00000-0 -31084-3 0 9998
L22 45570 52.9979 240.9499 0001130 88.9598 138.1738 15.62776513 1806

Live tracking and technical data element details for STARLINK-1376 (NORAD 45570). STARLINK-1376 can be tracked NOW for your location showing map with azimuth and elevation plus other details from your city location.

Track the satellite on the map from your city or location and see movement details for azimuth, elevation, latitude, longitude, range, height, and movement on the map or in text.







IsCatalogInMostPopularTable: catalog: 45570, numindb: 9
Update: records affected: 1



GetName: 45570 STARLINK-1376

Hit Count: updated at: Tue, 26 May 2020 02:54:48 GMT